GW3271 Weather Reports


Display with metric or nautical units.
time (UTC)temp
F
wind
direction
speed
MPH
gust
MPH
rain 1hr
in
rain 24hr
in
rain mn
in
humidity
%
barometer
mb
20260905014534 86 0 0.0 4.0 0.00 0.00 0.00 66 1013.2
20260905013045 86 65 0.0 4.0 0.00 0.00 0.00 66 1013.2
20260905011603 87 226 1.0 5.0 0.00 0.00 0.00 66 1012.9
20260905010034 87 39 2.0 8.0 0.00 0.00 0.00 65 1012.8
20260905004536 87 26 4.0 8.0 0.00 0.00 0.00 64 1012.7
20260905003038 88 71 4.0 8.0 0.00 0.00 0.00 62 1012.3
20260905001543 89 60 3.0 11.0 0.00 0.00 0.00 59 1012.3
20260905000034 89 88 4.0 9.0 0.00 0.00 0.00 60 1012.2
20260904234536 89 39 5.0 10.0 0.00 0.00 0.00 59 1012.1
20260904233032 89 60 4.0 11.0 0.00 0.00 0.00 58 1012.3
20260904231535 90 78 4.0 9.0 0.00 0.00 0.00 58 1012.1
20260904230034 90 72 3.0 8.0 0.00 0.00 0.00 58 1012.2
20260904224536 91 5 3.0 10.0 0.00 0.00 0.00 57 1012.0
20260904223032 93 193 1.0 5.0 0.00 0.00 0.00 49 1012.2
20260904221535 94 79 0.0 5.0 0.00 0.00 0.00 47 1012.2
20260904220032 94 243 1.0 4.0 0.00 0.00 0.00 49 1012.3
20260904214533 95 271 1.0 10.0 0.00 0.00 0.00 46 1012.4
20260904213034 94 287 2.0 6.0 0.00 0.00 0.00 49 1012.8
20260904211532 92 222 1.0 4.0 0.00 0.00 0.00 56 1013.0
20260904210035 92 230 0.0 2.0 0.00 0.00 0.00 60 1013.1
20260904204534 89 0 1.0 6.0 0.00 0.00 0.00 64 1013.4
20260904203036 88 64 0.0 3.0 0.00 0.00 0.00 66 1013.7
20260904201532 88 360 0.0 3.0 0.00 0.00 0.00 65 1013.9
20260904200037 87 0 0.0 5.0 0.00 0.00 0.00 66 1014.1
20260904194544 87 0 2.0 5.0 0.00 0.00 0.00 60 1014.1
20260904193033 86 23 1.0 5.0 0.00 0.00 0.00 69 1014.2
20260904191535 86 54 0.0 4.0 0.00 0.00 0.00 70 1014.3
20260904190034 86 30 0.0 3.0 0.00 0.00 0.00 73 1014.6
20260904184538 85 0 0.0 3.0 0.00 0.00 0.00 74 1014.8
20260904183035 85 246 0.0 3.0 0.00 0.00 0.00 75 1015.0
20260904181547 85 0 0.0 3.0 0.00 0.00 0.00 75 1015.0
20260904180039 85 264 1.0 5.0 0.00 0.00 0.00 75 1015.0
20260904174535 84 91 1.0 3.0 0.00 0.00 0.00 76 1015.1
20260904173036 84 51 0.0 3.0 0.00 0.00 0.00 77 1015.3
20260904171539 84 86 1.0 6.0 0.00 0.00 0.00 78 1015.5
20260904170034 85 0 0.0 1.0 0.00 0.00 0.00 76 1015.5
20260904164531 84 221 0.0 5.0 0.00 0.00 0.00 76 1015.5
20260904163034 84 250 0.0 3.0 0.00 0.00 0.00 76 1015.3
20260904161533 84 235 0.0 4.0 0.00 0.00 0.00 78 1015.3
20260904160034 83 0 0.0 4.0 0.00 0.00 0.00 79 1015.1
20260904154544 83 252 0.0 2.0 0.00 0.00 0.00 80 1015.1
20260904153036 82 0 0.0 3.0 0.00 0.00 0.00 81 1015.1
20260904151536 82 0 0.0 2.0 0.00 0.00 0.00 82 1014.9
20260904150033 81 0 0.0 4.0 0.00 0.00 0.00 83 1015.0
20260904144533 81 0 1.0 4.0 0.00 0.00 0.00 83 1015.1
20260904143038 81 257 0.0 2.0 0.00 0.00 0.00 84 1015.1
20260904141537 81 0 0.0 2.0 0.00 0.00 0.00 85 1015.0
20260904140044 81 267 0.0 1.0 0.00 0.00 0.00 85 1015.0
20260904134534 81 0 0.0 4.0 0.00 0.00 0.00 85 1015.0
20260904133035 81 0 0.0 2.0 0.00 0.00 0.00 85 1014.9
20260904131533 80 0 0.0 2.0 0.00 0.00 0.00 85 1014.8
20260904130035 80 0 0.0 3.0 0.00 0.00 0.00 86 1014.5
20260904124535 80 232 0.0 2.0 0.00 0.00 0.00 87 1014.4
20260904123034 80 0 0.0 2.0 0.00 0.00 0.00 87 1014.4
20260904121536 80 0 0.0 4.0 0.00 0.00 0.00 87 1014.1
20260904120045 80 0 1.0 5.0 0.00 0.00 0.00 87 1013.9
20260904114532 79 37 2.0 7.0 0.00 0.00 0.00 87 1013.8
20260904113041 80 0 1.0 5.0 0.00 0.00 0.00 86 1013.8
20260904111534 80 147 1.0 5.0 0.00 0.00 0.00 86 1013.7
20260904110036 80 335 0.0 6.0 0.00 0.00 0.00 86 1013.6
20260904104548 80 0 1.0 3.0 0.00 0.00 0.00 85 1013.4
20260904103034 80 0 0.0 3.0 0.00 0.00 0.00 85 1013.3
20260904101535 81 30 0.0 2.0 0.00 0.00 0.00 84 1013.2
20260904100037 81 241 0.0 2.0 0.00 0.00 0.00 84 1013.2
20260904094535 81 220 0.0 3.0 0.00 0.00 0.00 84 1013.2
20260904093032 81 205 1.0 6.0 0.00 0.00 0.00 84 1013.0
20260904091536 81 124 0.0 6.0 0.00 0.00 0.00 84 1013.0
20260904090035 81 255 1.0 5.0 0.00 0.00 0.00 84 1012.9
20260904084536 81 251 0.0 3.0 0.00 0.00 0.00 83 1012.9
20260904083038 81 257 1.0 8.0 0.00 0.00 0.00 83 1012.9
20260904081533 81 248 2.0 6.0 0.00 0.00 0.00 83 1012.9
20260904080036 81 195 1.0 6.0 0.00 0.00 0.00 83 1013.0
20260904074543 81 242 2.0 6.0 0.00 0.00 0.00 83 1013.0
20260904073036 81 250 2.0 7.0 0.00 0.00 0.00 82 1013.2
20260904071543 81 171 2.0 6.0 0.00 0.00 0.00 82 1013.4
20260904070035 82 183 1.0 6.0 0.00 0.00 0.00 81 1013.5
20260904064537 82 156 0.0 6.0 0.00 0.00 0.00 80 1013.6
20260904063036 82 242 1.0 5.0 0.00 0.00 0.00 80 1013.5
20260904061540 82 251 1.0 5.0 0.00 0.00 0.00 79 1013.5
20260904060036 82 0 0.0 4.0 0.00 0.00 0.00 79 1013.7
20260904054540 82 0 1.0 7.0 0.00 0.00 0.00 79 1013.5
20260904053037 81 261 0.0 4.0 0.00 0.00 0.00 79 1013.4
20260904051537 81 0 0.0 4.0 0.00 0.00 0.00 79 1013.5
20260904050032 81 271 1.0 7.0 0.00 0.00 0.00 78 1013.4
20260904044536 81 30 0.0 3.0 0.00 0.00 0.00 79 1013.5
20260904043035 81 262 1.0 6.0 0.00 0.00 0.00 78 1013.3
20260904041535 81 65 1.0 6.0 0.00 0.00 0.00 78 1013.3
20260904040038 81 73 2.0 7.0 0.00 0.00 0.00 78 1013.1
20260904034536 81 85 1.0 7.0 0.00 0.00 0.00 78 1013.1
20260904033034 82 65 2.0 6.0 0.00 0.00 0.00 77 1013.1
20260904031531 82 0 1.0 13.0 0.00 0.00 0.00 76 1013.2
20260904030033 82 46 3.0 8.0 0.00 0.00 0.00 75 1013.1
20260904024534 82 46 4.0 8.0 0.00 0.00 0.00 74 1012.9
20260904023033 83 43 3.0 11.0 0.00 0.00 0.00 73 1012.8
20260904021545 83 356 4.0 11.0 0.00 0.00 0.00 72 1012.7
20260904020033 84 64 5.0 10.0 0.00 0.00 0.00 70 1012.3